Flag for U.S.A. Weather past 2 weeks in Greensboro, North Carolina, U.S.A.

Now
39 °F

Mostly cloudy.


Feels Like: 37 °F
Forecast: 32 / 43 °F
Wind: 3 mph from Southeast

Location: Piedmont Triad International Airport

Current Time: Dec 20, 2014 at 4:44:10 PM

Latest Report: Dec 20, 2014 at 3:54 PM


Visibility: 8 mi

Pressure: 30.22 "Hg

Humidity: 76%

Dew point: 32 °F

Location of GreensboroLocation

Historic Weather in Greensboro — Graph

°F

Greensboro temperature yesterday

Maximum temperature yesterday: 52 °F (at 1:54 PM)
Minimum temperature yesterday: 38 °F (at 6:54 AM)
Average temperature yesterday: 44 °F

Past Weeks' High & Low Weather Summary

 TemperatureHumidityPressure
High60 °F (Dec 13, 2:54 PM)100% (Dec 6, 6:54 PM)30.44 "Hg (Dec 6, 6:54 PM)
Low27 °F (Dec 11, 3:54 AM)18% (Dec 13, 12:54 PM)29.86 "Hg (Dec 16, 2:54 PM)
Average43 °F60%30.12 "Hg
* Reported Dec 5 2:54 PM — Dec 20 2:54 PM, Greensboro, Weather by CustomWeather, © 2014

Note: Actual official high and low records may vary slightly from our data, if they occured in-between our weather recording intervals... More about our weather records

Advertising

Greensboro weather history for previous 24 hours

 ConditionsComfort  
Time TempWeatherWind HumidityBarometerVisibility
2:54 PM
Dec 20
38 °FOvercast.No wind79%30.21 "Hg9 mi
1:54 PM37 °FOvercast.No wind79%30.22 "Hg9 mi
12:54 PM36 °FMostly cloudy.No wind79%30.24 "Hg10 mi
11:54 AM36 °FLight snow. Overcast.5 mph79%30.26 "Hg9 mi
10:54 AM35 °FLight snow. Mostly cloudy.6 mph78%30.27 "Hg8 mi
9:54 AM34 °FLight snow. Mostly cloudy.8 mph82%30.27 "Hg6 mi
8:54 AM34 °FLight snow. Cloudy.5 mph79%30.29 "Hg6 mi
7:54 AM34 °FMostly cloudy.7 mph76%30.25 "Hg10 mi
6:54 AM35 °FOvercast.5 mph70%30.25 "Hg10 mi
5:54 AM36 °FOvercast.5 mph67%30.23 "Hg10 mi
4:54 AM37 °FOvercast.7 mph62%30.21 "Hg10 mi
3:54 AM38 °FOvercast.3 mph60%30.19 "Hg10 mi
2:54 AM38 °FPassing clouds.6 mph65%30.19 "Hg10 mi
1:54 AM38 °FHigh level clouds.8 mph65%30.20 "Hg10 mi
12:54 AM40 °FPassing clouds.3 mph58%30.20 "Hg10 mi
11:54 PM
Dec 19
40 °FPassing clouds.No wind58%30.20 "Hg10 mi
10:54 PM40 °FPassing clouds.6 mph58%30.18 "Hg10 mi
9:54 PM41 °FPassing clouds.No wind53%30.18 "Hg10 mi
8:54 PM43 °FPassing clouds.No wind49%30.18 "Hg10 mi
7:54 PM44 °FPassing clouds.3 mph47%30.17 "Hg10 mi
6:54 PM45 °FClear.5 mph45%30.16 "Hg10 mi
5:54 PM46 °FPassing clouds.No wind40%30.14 "Hg10 mi
4:54 PM50 °FPartly sunny.No wind33%30.11 "Hg10 mi
Weather by CustomWeather, © 2014

See weather overviewHow to use our weather pages